Weather in Drezdenko

Poland     52°50′40″N   15°50′01″E
temp.,
°C
wind,
m/s
gust,
m/s
humid.,
%
clouds,
%
prec.,
mm/h
press.,
hPa
HPBL,
m
2 july, sat
sat223:00+17wnw5991100 0.3 1019681
02:00+16wnw498894 0.3 1020709
05:00+13w37941 0.0 1022291
08:00+17wnw46700 0.0 1023578
11:00+22wnw35480 0.0 10241565
14:00+25wnw33360 0.0 10232175
17:00+25nnw22340 0.0 10222142
20:00+22nne22490 0.0 102236
3 july, sun
sun323:00+18ene33561 0.0 102235
02:00+15e35710 0.0 102280
05:00+14ese25770 0.0 102186
08:00+21se36570 0.0 1021398
11:00+26sse45390 0.0 10201716
14:00+29sse34310 0.0 10182313
17:00+30sse34292 0.0 10162581
20:00+26se354443 0.0 1015124
4 july, mon
mon423:00+21se41254100 0.0 1015264
02:00+21sse396099 0.0 1015233
05:00+17sse227520 0.6 101524
08:00+21nnw3570100 0.6 1016312
11:00+26nnw444627 0.0 10161153
14:00+28nw354085 0.0 10162613
17:00+26nnw554544 0.0 10161100
20:00+23nw3557100 0.0 1017230
5 july, tue
tue523:00+19wnw11678 0.0 101811
02:00+16wsw017795 0.0 101811
05:00+14nw248465 0.0 101975
08:00+19nnw467074 0.0 1020423
11:00+22nw45478 0.0 10201221
14:00+25wnw473595 0.0 10202715
17:00+25wsw47325 0.0 10192282
20:00+22wnw383740 0.0 1019400
6 july, wed
wed623:00+15n27712 0.0 1021129
02:00+13nw118227 0.0 102211
05:00+12w23850 0.0 102153
08:00+17wnw47622 0.0 1022702
11:00+21wnw57435 0.0 10211728
14:00+24wnw573326 0.0 10202409
17:00+23wnw573453 0.0 10192295
20:00+20nw4846100 0.0 1020596